Time,TemperatureF,DewpointF,PressureIn,WindDirection,WindDirectionDegrees,WindSpeedMPH,WindSpeedGustMPH,Humidity,HourlyPrecipIn,Conditions,Clouds,dailyrainin,SoftwareType,DateUTC
2013-09-22 00:01:00,73.0,67.9,29.60,NE,45,0.0,0.0,84,0.00,RA,,0.00,WeatherDisplay:10.37,2013-09-22 05:01:00,
2013-09-22 00:06:00,72.7,67.9,29.61,North,360,0.0,0.0,85,0.00,RA,,0.00,WeatherDisplay:10.37,2013-09-22 05:06:00,
2013-09-22 00:11:00,72.7,67.9,29.61,NNE,22,0.5,1.7,85,0.00,CLR,,0.00,WeatherDisplay:10.37,2013-09-22 05:11:00,
2013-09-22 00:16:00,72.5,68.1,29.60,North,360,0.0,0.0,86,0.00,CLR,,0.00,WeatherDisplay:10.37,2013-09-22 05:16:00,
2013-09-22 00:21:00,72.1,67.7,29.60,North,360,0.0,0.0,86,0.00,CLR,,0.00,WeatherDisplay:10.37,2013-09-22 05:21:00,
2013-09-22 00:26:00,72.0,67.9,29.60,NNE,22,0.0,0.0,87,0.00,CLR,,0.00,WeatherDisplay:10.37,2013-09-22 05:26:00,
2013-09-22 00:31:00,72.0,68.2,29.60,NNE,22,0.0,0.0,88,0.00,CLR,,0.00,WeatherDisplay:10.37,2013-09-22 05:31:00,
2013-09-22 00:36:00,71.6,67.9,29.60,NNE,22,0.0,0.0,88,0.00,CLR,,0.00,WeatherDisplay:10.37,2013-09-22 05:36:00,
2013-09-22 00:41:00,71.2,67.8,29.60,ENE,68,0.0,0.0,89,0.00,CLR,,0.00,WeatherDisplay:10.37,2013-09-22 05:41:00,
2013-09-22 00:46:00,71.2,68.1,29.60,NE,45,0.0,0.0,90,0.00,CLR,,0.00,WeatherDisplay:10.37,2013-09-22 05:46:00,
2013-09-22 00:51:00,71.1,68.0,29.60,North,360,0.0,0.0,90,0.00,CLR,,0.00,WeatherDisplay:10.37,2013-09-22 05:51:00,
2013-09-22 00:56:00,71.1,68.0,29.60,North,360,0.0,0.0,90,0.00,CLR,,0.00,WeatherDisplay:10.37,2013-09-22 05:56:00,
2013-09-22 01:01:00,70.7,67.9,29.60,NE,45,0.0,0.0,91,0.00,CLR,,0.00,WeatherDisplay:10.37,2013-09-22 06:01:00,
2013-09-22 01:06:00,70.5,67.7,29.60,North,360,0.0,0.0,91,0.00,CLR,,0.00,WeatherDisplay:10.37,2013-09-22 06:06:00,
2013-09-22 01:11:00,70.3,67.9,29.60,North,360,0.0,0.0,92,0.00,CLR,,0.00,WeatherDisplay:10.37,2013-09-22 06:11:00,
2013-09-22 01:16:00,70.3,67.9,29.60,North,360,1.4,1.4,92,0.00,CLR,,0.00,WeatherDisplay:10.37,2013-09-22 06:16:00,
2013-09-22 01:21:00,70.3,67.9,29.60,NNE,22,0.0,0.0,92,0.00,CLR,,0.00,WeatherDisplay:10.37,2013-09-22 06:21:00,
2013-09-22 01:26:00,70.3,67.9,29.60,North,360,1.0,1.7,92,0.00,CLR,,0.00,WeatherDisplay:10.37,2013-09-22 06:26:00,
2013-09-22 01:31:00,70.3,68.2,29.60,North,360,0.0,1.2,93,0.00,CLR,,0.00,WeatherDisplay:10.37,2013-09-22 06:31:00,
2013-09-22 01:36:00,70.2,68.1,29.60,North,360,0.9,1.2,93,0.00,CLR,,0.00,WeatherDisplay:10.37,2013-09-22 06:36:00,
2013-09-22 01:41:00,70.0,68.2,29.60,North,360,0.0,0.0,94,0.00,CLR,,0.00,WeatherDisplay:10.37,2013-09-22 06:41:00,
2013-09-22 01:46:00,69.8,68.0,29.60,NE,45,0.0,0.0,94,0.00,CLR,,0.00,WeatherDisplay:10.37,2013-09-22 06:46:00,
2013-09-22 01:51:00,69.8,68.0,29.60,NNE,22,0.0,0.0,94,0.00,CLR,,0.00,WeatherDisplay:10.37,2013-09-22 06:51:00,
2013-09-22 01:56:00,69.6,67.8,29.60,NNE,22,0.0,0.0,94,0.00,CLR,,0.00,WeatherDisplay:10.37,2013-09-22 06:56:00,
2013-09-22 02:01:00,69.8,68.0,29.60,North,360,2.0,2.7,94,0.00,CLR,,0.00,WeatherDisplay:10.37,2013-09-22 07:01:00,
2013-09-22 02:06:00,70.0,68.2,29.59,ENE,68,1.2,2.3,94,0.00,CLR,,0.00,WeatherDisplay:10.37,2013-09-22 07:06:00,
2013-09-22 02:11:00,70.0,68.2,29.59,ENE,68,1.9,2.3,94,0.00,CLR,,0.00,WeatherDisplay:10.37,2013-09-22 07:11:00,
2013-09-22 02:16:00,70.0,68.2,29.60,East,90,0.0,0.0,94,0.00,CLR,,0.00,WeatherDisplay:10.37,2013-09-22 07:16:00,
2013-09-22 02:21:00,70.0,68.2,29.60,NNE,22,1.9,2.3,94,0.00,CLR,,0.00,WeatherDisplay:10.37,2013-09-22 07:21:00,
2013-09-22 02:26:00,70.0,68.2,29.60,NNE,22,1.2,2.7,94,0.00,CLR,,0.00,WeatherDisplay:10.37,2013-09-22 07:26:00,
2013-09-22 02:31:00,69.8,68.0,29.60,NNE,22,1.4,2.3,94,0.00,CLR,,0.00,WeatherDisplay:10.37,2013-09-22 07:31:00,
2013-09-22 02:36:00,69.8,68.0,29.60,NNW,338,2.0,2.3,94,0.00,CLR,,0.00,WeatherDisplay:10.37,2013-09-22 07:36:00,
2013-09-22 02:41:00,69.8,68.0,29.60,ENE,68,1.3,2.3,94,0.00,CLR,,0.00,WeatherDisplay:10.37,2013-09-22 07:41:00,
2013-09-22 02:46:00,69.6,67.8,29.60,NE,45,1.4,1.4,94,0.00,CLR,,0.00,WeatherDisplay:10.37,2013-09-22 07:46:00,
2013-09-22 02:51:00,69.8,67.7,29.60,North,360,1.1,2.3,93,0.00,CLR,,0.00,WeatherDisplay:10.37,2013-09-22 07:51:00,
2013-09-22 02:56:00,69.8,67.7,29.60,ESE,112,1.5,2.7,93,0.00,CLR,,0.00,WeatherDisplay:10.37,2013-09-22 07:56:00,
2013-09-22 03:01:00,69.8,67.7,29.60,NE,45,1.4,2.3,93,0.00,CLR,,0.00,WeatherDisplay:10.37,2013-09-22 08:01:00,
2013-09-22 03:06:00,69.8,67.7,29.59,NNW,338,1.6,2.7,93,0.00,CLR,,0.00,WeatherDisplay:10.37,2013-09-22 08:06:00,
2013-09-22 03:11:00,69.6,67.5,29.59,NW,315,1.6,1.7,93,0.00,CLR,,0.00,WeatherDisplay:10.37,2013-09-22 08:11:00,
2013-09-22 03:16:00,70.0,67.6,29.60,NNE,22,0.8,2.3,92,0.00,CLR,,0.00,WeatherDisplay:10.37,2013-09-22 08:16:00,
2013-09-22 03:21:00,69.8,67.4,29.60,East,90,0.3,1.2,92,0.00,CLR,,0.00,WeatherDisplay:10.37,2013-09-22 08:21:00,
2013-09-22 03:26:00,69.8,67.4,29.59,NNW,338,1.0,1.2,92,0.00,CLR,,0.00,WeatherDisplay:10.37,2013-09-22 08:26:00,
2013-09-22 03:31:00,69.8,67.4,29.59,NNE,22,1.4,2.3,92,0.00,CLR,,0.00,WeatherDisplay:10.37,2013-09-22 08:31:00,
2013-09-22 03:36:00,70.0,66.9,29.59,East,90,3.0,3.5,90,0.00,CLR,,0.00,WeatherDisplay:10.37,2013-09-22 08:36:00,
2013-09-22 03:41:00,70.0,66.6,29.59,ENE,68,2.0,3.5,89,0.00,CLR,,0.00,WeatherDisplay:10.37,2013-09-22 08:41:00,
2013-09-22 03:46:00,70.0,66.6,29.59,NNW,338,1.6,3.5,89,0.00,CLR,,0.00,WeatherDisplay:10.37,2013-09-22 08:46:00,
2013-09-22 03:51:00,70.0,66.3,29.59,North,360,1.6,2.3,88,0.00,CLR,,0.00,WeatherDisplay:10.37,2013-09-22 08:51:00,
2013-09-22 03:56:00,69.8,65.8,29.59,NNW,338,0.9,2.3,87,0.00,CLR,,0.00,WeatherDisplay:10.37,2013-09-22 08:56:00,
2013-09-22 04:01:00,69.6,65.6,29.58,NNW,338,2.2,3.5,87,0.00,CLR,,0.00,WeatherDisplay:10.37,2013-09-22 09:01:00,
2013-09-22 04:06:00,69.6,65.2,29.58,NE,45,2.3,3.5,86,0.00,CLR,,0.00,WeatherDisplay:10.37,2013-09-22 09:06:00,
2013-09-22 04:11:00,69.4,65.0,29.58,NNW,338,0.9,2.3,86,0.00,CLR,,0.00,WeatherDisplay:10.37,2013-09-22 09:11:00,
2013-09-22 04:16:00,69.3,64.9,29.58,West,270,1.8,2.3,86,0.00,CLR,,0.00,WeatherDisplay:10.37,2013-09-22 09:16:00,
2013-09-22 04:21:00,69.1,64.4,29.58,NE,45,2.3,2.3,85,0.00,CLR,,0.00,WeatherDisplay:10.37,2013-09-22 09:21:00,
2013-09-22 04:26:00,69.1,64.4,29.59,North,360,2.0,2.7,85,0.00,CLR,,0.00,WeatherDisplay:10.37,2013-09-22 09:26:00,
2013-09-22 04:31:00,69.1,64.1,29.59,North,360,1.8,2.3,84,0.00,CLR,,0.00,WeatherDisplay:10.37,2013-09-22 09:31:00,
2013-09-22 04:36:00,69.1,63.7,29.59,NW,315,1.9,3.5,83,0.00,CLR,,0.00,WeatherDisplay:10.37,2013-09-22 09:36:00,
2013-09-22 04:41:00,69.1,63.7,29.59,NE,45,2.9,4.2,83,0.00,CLR,,0.00,WeatherDisplay:10.37,2013-09-22 09:41:00,
2013-09-22 04:46:00,69.1,63.7,29.59,North,360,1.4,1.4,83,0.00,CLR,,0.00,WeatherDisplay:10.37,2013-09-22 09:46:00,
2013-09-22 04:51:00,68.9,63.5,29.58,NNW,338,2.2,2.3,83,0.00,CLR,,0.00,WeatherDisplay:10.37,2013-09-22 09:51:00,
2013-09-22 04:56:00,68.9,63.2,29.58,North,360,1.9,2.3,82,0.00,CLR,,0.00,WeatherDisplay:10.37,2013-09-22 09:56:00,
2013-09-22 05:01:00,68.7,63.0,29.58,NNE,22,2.3,2.3,82,0.00,CLR,,0.00,WeatherDisplay:10.37,2013-09-22 10:01:00,
2013-09-22 05:06:00,68.5,62.8,29.58,NNE,22,1.0,1.7,82,0.00,CLR,,0.00,WeatherDisplay:10.37,2013-09-22 10:06:00,
2013-09-22 05:11:00,68.4,62.7,29.58,ENE,68,1.4,1.4,82,0.00,CLR,,0.00,WeatherDisplay:10.37,2013-09-22 10:11:00,
2013-09-22 05:16:00,68.2,62.5,29.59,ESE,112,1.6,2.3,82,0.00,CLR,,0.00,WeatherDisplay:10.37,2013-09-22 10:16:00,
2013-09-22 05:21:00,68.0,62.3,29.59,ESE,112,2.5,3.5,82,0.00,CLR,,0.00,WeatherDisplay:10.37,2013-09-22 10:21:00,
2013-09-22 05:26:00,68.0,61.9,29.58,North,360,2.6,3.5,81,0.00,CLR,,0.00,WeatherDisplay:10.37,2013-09-22 10:26:00,
2013-09-22 05:31:00,68.0,61.9,29.58,NNW,338,3.2,5.8,81,0.00,CLR,,0.00,WeatherDisplay:10.37,2013-09-22 10:31:00,
2013-09-22 05:36:00,67.8,61.8,29.58,NNE,22,2.3,2.3,81,0.00,CLR,,0.00,WeatherDisplay:10.37,2013-09-22 10:36:00,
2013-09-22 05:41:00,67.8,61.8,29.59,North,360,1.9,2.3,81,0.00,CLR,,0.00,WeatherDisplay:10.37,2013-09-22 10:41:00,
2013-09-22 05:46:00,67.6,61.6,29.59,SE,135,1.0,2.3,81,0.00,CLR,,0.00,WeatherDisplay:10.37,2013-09-22 10:46:00,
2013-09-22 05:51:00,67.6,61.6,29.59,NNW,338,2.1,4.7,81,0.00,CLR,,0.00,WeatherDisplay:10.37,2013-09-22 10:51:00,
2013-09-22 05:58:00,67.5,61.5,29.59,North,360,1.9,3.5,81,0.00,CLR,,0.00,WeatherDisplay:10.37,2013-09-22 10:58:00,
2013-09-22 06:03:00,67.5,61.5,29.58,SE,135,1.0,1.2,81,0.00,CLR,,0.00,WeatherDisplay:10.37,2013-09-22 11:03:00,
2013-09-22 06:08:00,67.1,61.1,29.58,NNE,22,1.9,2.3,81,0.00,CLR,,0.00,WeatherDisplay:10.37,2013-09-22 11:08:00,
2013-09-22 06:13:00,67.1,61.1,29.58,NNW,338,2.0,2.7,81,0.00,CLR,,0.00,WeatherDisplay:10.37,2013-09-22 11:13:00,
2013-09-22 06:18:00,66.9,61.2,29.59,NE,45,1.6,2.3,82,0.00,CLR,,0.00,WeatherDisplay:10.37,2013-09-22 11:18:00,
2013-09-22 06:23:00,66.7,61.0,29.59,North,360,1.7,1.7,82,0.00,CLR,,0.00,WeatherDisplay:10.37,2013-09-22 11:23:00,
2013-09-22 06:28:00,66.7,61.0,29.59,NNW,338,2.5,2.5,82,0.00,CLR,,0.00,WeatherDisplay:10.37,2013-09-22 11:28:00,
2013-09-22 06:33:00,66.6,60.9,29.59,NNW,338,2.6,3.5,82,0.00,CLR,,0.00,WeatherDisplay:10.37,2013-09-22 11:33:00,
2013-09-22 06:38:00,66.4,61.1,29.59,North,360,2.0,2.3,83,0.00,CLR,,0.00,WeatherDisplay:10.37,2013-09-22 11:38:00,
2013-09-22 06:43:00,66.4,61.1,29.59,NNE,22,1.8,2.3,83,0.00,CLR,,0.00,WeatherDisplay:10.37,2013-09-22 11:43:00,
2013-09-22 06:48:00,66.4,61.1,29.59,East,90,2.4,2.4,83,0.00,CLR,,0.00,WeatherDisplay:10.37,2013-09-22 11:48:00,
2013-09-22 06:53:00,66.2,60.9,29.59,East,90,1.2,1.2,83,0.00,CLR,,0.00,WeatherDisplay:10.37,2013-09-22 11:53:00,
2013-09-22 06:58:00,66.0,60.7,29.59,SW,225,1.9,2.3,83,0.00,CLR,,0.00,WeatherDisplay:10.37,2013-09-22 11:58:00,
2013-09-22 07:03:00,66.0,60.7,29.60,ENE,68,0.5,1.7,83,0.00,CLR,,0.00,WeatherDisplay:10.37,2013-09-22 12:03:00,
2013-09-22 07:08:00,66.0,60.7,29.60,NNE,22,0.6,1.2,83,0.00,CLR,,0.00,WeatherDisplay:10.37,2013-09-22 12:08:00,
2013-09-22 07:13:00,65.8,60.5,29.60,North,360,0.9,1.2,83,0.00,CLR,,0.00,WeatherDisplay:10.37,2013-09-22 12:13:00,
2013-09-22 07:18:00,65.7,60.7,29.59,North,360,2.5,3.5,84,0.00,CLR,,0.00,WeatherDisplay:10.37,2013-09-22 12:18:00,
2013-09-22 07:23:00,65.7,60.7,29.59,ENE,68,2.0,5.8,84,0.00,CLR,,0.00,WeatherDisplay:10.37,2013-09-22 12:23:00,
2013-09-22 07:28:00,65.5,60.5,29.60,North,360,1.5,2.3,84,0.00,CLR,,0.00,WeatherDisplay:10.37,2013-09-22 12:28:00,
2013-09-22 07:33:00,65.5,60.5,29.60,North,360,2.0,2.3,84,0.00,CLR,,0.00,WeatherDisplay:10.37,2013-09-22 12:33:00,
2013-09-22 07:38:00,65.5,60.5,29.60,NNE,22,1.6,2.3,84,0.00,CLR,,0.00,WeatherDisplay:10.37,2013-09-22 12:38:00,
2013-09-22 07:43:00,65.7,60.4,29.60,North,360,1.8,4.6,83,0.00,CLR,,0.00,WeatherDisplay:10.37,2013-09-22 12:43:00,
2013-09-22 07:48:00,65.8,60.5,29.60,East,90,1.7,2.3,83,0.00,CLR,,0.00,WeatherDisplay:10.37,2013-09-22 12:48:00,
2013-09-22 07:53:00,66.0,60.3,29.60,North,360,1.8,2.3,82,0.00,CLR,,0.00,WeatherDisplay:10.37,2013-09-22 12:53:00,
2013-09-22 07:58:00,66.2,60.2,29.60,ENE,68,2.5,3.5,81,0.00,CLR,,0.00,WeatherDisplay:10.37,2013-09-22 12:58:00,
2013-09-22 08:03:00,66.4,60.4,29.61,NNE,22,2.1,2.7,81,0.00,CLR,,0.00,WeatherDisplay:10.37,2013-09-22 13:03:00,
2013-09-22 08:08:00,66.4,60.0,29.61,North,360,0.2,2.3,80,0.00,CLR,,0.00,WeatherDisplay:10.37,2013-09-22 13:08:00,
2013-09-22 08:13:00,66.7,60.3,29.61,ENE,68,1.8,2.3,80,0.00,CLR,,0.00,WeatherDisplay:10.37,2013-09-22 13:13:00,
2013-09-22 08:18:00,66.9,60.2,29.61,NE,45,1.7,1.7,79,0.00,CLR,,0.00,WeatherDisplay:10.37,2013-09-22 13:18:00,
2013-09-22 08:23:00,67.3,60.2,29.61,ESE,112,3.0,4.6,78,0.00,CLR,,0.00,WeatherDisplay:10.37,2013-09-22 13:23:00,
2013-09-22 08:28:00,67.5,60.4,29.61,North,360,2.7,3.5,78,0.00,CLR,,0.00,WeatherDisplay:10.37,2013-09-22 13:28:00,
2013-09-22 08:33:00,67.8,60.3,29.61,ENE,68,1.3,3.5,77,0.00,CLR,,0.00,WeatherDisplay:10.37,2013-09-22 13:33:00,
2013-09-22 08:38:00,68.2,60.3,29.61,NE,45,2.9,3.7,76,0.00,CLR,,0.00,WeatherDisplay:10.37,2013-09-22 13:38:00,
2013-09-22 08:43:00,68.5,60.3,29.61,North,360,3.8,6.9,75,0.00,CLR,,0.00,WeatherDisplay:10.37,2013-09-22 13:43:00,
2013-09-22 08:48:00,68.5,59.9,29.61,NW,315,3.0,3.7,74,0.00,CLR,,0.00,WeatherDisplay:10.37,2013-09-22 13:48:00,
2013-09-22 08:53:00,68.9,59.9,29.61,ENE,68,3.4,4.2,73,0.00,CLR,,0.00,WeatherDisplay:10.37,2013-09-22 13:53:00,
2013-09-22 08:58:00,69.1,60.1,29.61,East,90,3.3,4.7,73,0.00,CLR,,0.00,WeatherDisplay:10.37,2013-09-22 13:58:00,
2013-09-22 09:03:00,69.3,59.9,29.62,North,360,1.9,5.8,72,0.00,CLR,,0.00,WeatherDisplay:10.37,2013-09-22 14:03:00,
2013-09-22 09:08:00,69.6,60.6,29.62,ENE,68,1.7,2.3,73,0.00,CLR,,0.00,WeatherDisplay:10.37,2013-09-22 14:08:00,
2013-09-22 09:13:00,70.0,60.6,29.62,NNE,22,1.9,4.6,72,0.00,CLR,,0.00,WeatherDisplay:10.37,2013-09-22 14:13:00,
2013-09-22 09:18:00,70.3,60.8,29.62,ENE,68,3.6,3.6,72,0.00,CLR,,0.00,WeatherDisplay:10.37,2013-09-22 14:18:00,
2013-09-22 09:23:00,70.5,60.6,29.62,ENE,68,2.6,2.6,71,0.00,CLR,,0.00,WeatherDisplay:10.37,2013-09-22 14:23:00,
2013-09-22 09:28:00,71.2,60.9,29.62,East,90,3.0,3.5,70,0.00,CLR,,0.00,WeatherDisplay:10.37,2013-09-22 14:28:00,
2013-09-22 09:33:00,71.8,60.7,29.62,North,360,2.8,5.8,68,0.00,CLR,,0.00,WeatherDisplay:10.37,2013-09-22 14:33:00,
2013-09-22 09:38:00,72.3,61.1,29.62,NNW,338,3.3,3.7,68,0.00,CLR,,0.00,WeatherDisplay:10.37,2013-09-22 14:38:00,
2013-09-22 09:43:00,72.9,61.3,29.62,North,360,3.0,3.5,67,0.00,CLR,,0.00,WeatherDisplay:10.37,2013-09-22 14:43:00,
2013-09-22 09:48:00,73.0,61.4,29.62,NNW,338,2.8,3.5,67,0.00,CLR,,0.00,WeatherDisplay:10.37,2013-09-22 14:48:00,
2013-09-22 09:53:00,74.3,61.8,29.62,NE,45,3.5,6.8,65,0.00,CLR,,0.00,WeatherDisplay:10.37,2013-09-22 14:53:00,
2013-09-22 09:58:00,74.1,61.6,29.62,NE,45,1.9,3.5,65,0.00,CLR,,0.00,WeatherDisplay:10.37,2013-09-22 14:58:00,
2013-09-22 10:03:00,74.7,62.1,29.62,NE,45,1.9,2.3,65,0.00,CLR,,0.00,WeatherDisplay:10.37,2013-09-22 15:03:00,
2013-09-22 10:08:00,75.4,61.9,29.62,East,90,2.5,4.7,63,0.00,CLR,,0.00,WeatherDisplay:10.37,2013-09-22 15:08:00,
2013-09-22 10:13:00,75.0,61.5,29.63,NE,45,2.9,3.5,63,0.00,CLR,,0.00,WeatherDisplay:10.37,2013-09-22 15:13:00,
2013-09-22 10:18:00,75.0,61.5,29.63,NE,45,7.8,8.1,63,0.00,CLR,,0.00,WeatherDisplay:10.37,2013-09-22 15:18:00,
2013-09-22 10:23:00,75.7,62.2,29.63,NNW,338,3.5,5.8,63,0.00,CLR,,0.00,WeatherDisplay:10.37,2013-09-22 15:23:00,
2013-09-22 10:28:00,76.1,62.6,29.64,NNE,22,2.8,3.5,63,0.00,CLR,,0.00,WeatherDisplay:10.37,2013-09-22 15:28:00,
2013-09-22 10:33:00,76.5,62.5,29.64,East,90,2.0,2.3,62,0.00,CLR,,0.00,WeatherDisplay:10.37,2013-09-22 15:33:00,
2013-09-22 10:38:00,76.8,62.8,29.64,ESE,112,4.3,6.9,62,0.00,CLR,,0.00,WeatherDisplay:10.37,2013-09-22 15:38:00,
2013-09-22 10:43:00,77.4,63.4,29.64,ESE,112,3.1,4.6,62,0.00,CLR,,0.00,WeatherDisplay:10.37,2013-09-22 15:43:00,
2013-09-22 10:48:00,77.5,63.5,29.64,ENE,68,2.9,3.7,62,0.00,CLR,,0.00,WeatherDisplay:10.37,2013-09-22 15:48:00,
2013-09-22 10:53:00,77.5,63.5,29.64,ENE,68,3.8,4.6,62,0.00,CLR,,0.00,WeatherDisplay:10.37,2013-09-22 15:53:00,
2013-09-22 10:58:00,77.9,63.8,29.64,East,90,1.9,2.3,62,0.00,CLR,,0.00,WeatherDisplay:10.37,2013-09-22 15:58:00,
2013-09-22 11:03:00,79.0,64.9,29.65,North,360,1.9,4.6,62,0.00,CLR,,0.00,WeatherDisplay:10.37,2013-09-22 16:03:00,
2013-09-22 11:08:00,79.0,64.9,29.65,NNW,338,3.0,3.2,62,0.00,CLR,,0.00,WeatherDisplay:10.37,2013-09-22 16:08:00,
2013-09-22 11:13:00,79.2,64.6,29.65,West,270,2.2,4.2,61,0.00,CLR,,0.00,WeatherDisplay:10.37,2013-09-22 16:13:00,
2013-09-22 11:18:00,79.0,64.9,29.64,NNE,22,2.7,4.6,62,0.00,CLR,,0.00,WeatherDisplay:10.37,2013-09-22 16:18:00,
2013-09-22 11:23:00,79.5,64.9,29.64,ESE,112,3.6,4.6,61,0.00,CLR,,0.00,WeatherDisplay:10.37,2013-09-22 16:23:00,
2013-09-22 11:28:00,79.5,64.9,29.64,East,90,2.6,5.8,61,0.00,CLR,,0.00,WeatherDisplay:10.37,2013-09-22 16:28:00,
2013-09-22 11:33:00,80.4,64.8,29.64,ENE,68,4.6,5.8,59,0.00,CLR,,0.00,WeatherDisplay:10.37,2013-09-22 16:33:00,
2013-09-22 11:38:00,79.7,64.6,29.63,East,90,2.9,4.7,60,0.00,CLR,,0.00,WeatherDisplay:10.37,2013-09-22 16:38:00,
2013-09-22 11:43:00,80.1,64.5,29.63,NNE,22,4.5,5.3,59,0.00,CLR,,0.00,WeatherDisplay:10.37,2013-09-22 16:43:00,
2013-09-22 11:48:00,81.3,65.6,29.63,ENE,68,2.7,3.7,59,0.00,CLR,,0.00,WeatherDisplay:10.37,2013-09-22 16:48:00,
2013-09-22 11:53:00,80.4,64.8,29.63,NE,45,4.1,8.8,59,0.00,CLR,,0.00,WeatherDisplay:10.37,2013-09-22 16:53:00,
2013-09-22 11:59:00,80.8,65.6,29.63,North,360,3.7,6.3,60,0.00,CLR,,0.00,WeatherDisplay:10.37,2013-09-22 16:59:00,
2013-09-22 12:04:00,81.9,66.2,29.63,East,90,3.2,3.5,59,0.00,CLR,,0.00,WeatherDisplay:10.37,2013-09-22 17:04:00,
2013-09-22 12:09:00,81.1,64.9,29.63,SSE,158,3.1,3.5,58,0.00,CLR,,0.00,WeatherDisplay:10.37,2013-09-22 17:09:00,
2013-09-22 12:14:00,81.3,65.1,29.63,East,90,2.5,3.5,58,0.00,CLR,,0.00,WeatherDisplay:10.37,2013-09-22 17:14:00,
2013-09-22 12:19:00,81.9,65.2,29.62,NNE,22,3.9,5.8,57,0.00,CLR,,0.00,WeatherDisplay:10.37,2013-09-22 17:19:00,
2013-09-22 12:24:00,82.0,65.3,29.62,NNW,338,2.5,2.7,57,0.00,CLR,,0.00,WeatherDisplay:10.37,2013-09-22 17:24:00,
2013-09-22 12:29:00,82.2,65.4,29.63,NE,45,1.8,3.7,57,0.00,CLR,,0.00,WeatherDisplay:10.37,2013-09-22 17:29:00,
2013-09-22 12:34:00,82.6,64.8,29.63,SW,225,4.2,5.8,55,0.00,CLR,,0.00,WeatherDisplay:10.37,2013-09-22 17:34:00,
2013-09-22 12:39:00,83.3,65.4,29.62,East,90,2.3,3.5,55,0.00,CLR,,0.00,WeatherDisplay:10.37,2013-09-22 17:39:00,
2013-09-22 12:44:00,82.8,65.0,29.62,North,360,5.0,6.9,55,0.00,CLR,,0.00,WeatherDisplay:10.37,2013-09-22 17:44:00,
2013-09-22 12:49:00,82.8,65.0,29.62,NNW,338,3.2,5.8,55,0.00,CLR,,0.00,WeatherDisplay:10.37,2013-09-22 17:49:00,
2013-09-22 12:54:00,83.1,64.7,29.62,ENE,68,2.8,3.5,54,0.00,CLR,,0.00,WeatherDisplay:10.37,2013-09-22 17:54:00,
2013-09-22 12:59:00,83.3,64.9,29.62,North,360,3.7,3.7,54,0.00,CLR,,0.00,WeatherDisplay:10.37,2013-09-22 17:59:00,
2013-09-22 13:04:00,82.9,64.0,29.61,North,360,3.6,5.8,53,0.00,CLR,,0.00,WeatherDisplay:10.37,2013-09-22 18:04:00,
2013-09-22 13:09:00,83.5,64.0,29.61,NE,45,5.4,6.9,52,0.00,CLR,,0.00,WeatherDisplay:10.37,2013-09-22 18:09:00,
2013-09-22 13:14:00,83.5,64.6,29.61,NE,45,3.6,4.6,53,0.00,CLR,,0.00,WeatherDisplay:10.37,2013-09-22 18:14:00,
2013-09-22 13:19:00,83.7,63.7,29.61,NE,45,3.1,6.3,51,0.00,CLR,,0.00,WeatherDisplay:10.37,2013-09-22 18:19:00,
2013-09-22 13:24:00,83.7,63.1,29.61,SE,135,5.0,6.9,50,0.00,CLR,,0.00,WeatherDisplay:10.37,2013-09-22 18:24:00,
2013-09-22 13:29:00,84.4,64.9,29.60,North,360,3.8,4.6,52,0.00,CLR,,0.00,WeatherDisplay:10.37,2013-09-22 18:29:00,
2013-09-22 13:34:00,84.0,63.4,29.60,North,360,3.4,8.1,50,0.00,CLR,,0.00,WeatherDisplay:10.37,2013-09-22 18:34:00,
2013-09-22 13:39:00,84.2,63.0,29.59,NNW,338,4.5,5.8,49,0.00,CLR,,0.00,WeatherDisplay:10.37,2013-09-22 18:39:00,
2013-09-22 13:44:00,84.4,63.7,29.59,East,90,2.1,3.5,50,0.00,CLR,,0.00,WeatherDisplay:10.37,2013-09-22 18:44:00,
2013-09-22 13:49:00,84.7,63.4,29.59,NNE,22,5.1,5.8,49,0.00,CLR,,0.00,WeatherDisplay:10.37,2013-09-22 18:49:00,
2013-09-22 13:54:00,84.0,63.4,29.59,ENE,68,4.2,5.8,50,0.00,CLR,,0.00,WeatherDisplay:10.37,2013-09-22 18:54:00,
2013-09-22 13:59:00,84.7,62.2,29.59,NNW,338,5.2,6.9,47,0.00,CLR,,0.00,WeatherDisplay:10.37,2013-09-22 18:59:00,
2013-09-22 14:04:00,84.7,62.2,29.59,NE,45,2.9,4.6,47,0.00,CLR,,0.00,WeatherDisplay:10.37,2013-09-22 19:04:00,
2013-09-22 14:09:00,85.1,62.6,29.59,NNE,22,4.2,6.9,47,0.00,CLR,,0.00,WeatherDisplay:10.37,2013-09-22 19:09:00,
2013-09-22 14:14:00,84.9,60.6,29.58,North,360,7.9,10.4,44,0.00,CLR,,0.00,WeatherDisplay:10.37,2013-09-22 19:14:00,
2013-09-22 14:19:00,85.8,60.7,29.58,North,360,2.7,3.5,43,0.00,CLR,,0.00,WeatherDisplay:10.37,2013-09-22 19:19:00,
2013-09-22 14:24:00,86.4,61.3,29.58,NNE,22,2.8,3.5,43,0.00,CLR,,0.00,WeatherDisplay:10.37,2013-09-22 19:24:00,
2013-09-22 14:29:00,86.2,61.7,29.57,North,360,4.2,5.8,44,0.00,CLR,,0.00,WeatherDisplay:10.37,2013-09-22 19:29:00,
2013-09-22 14:34:00,86.0,60.9,29.57,NNW,338,2.4,4.6,43,0.00,CLR,,0.00,WeatherDisplay:10.37,2013-09-22 19:34:00,
2013-09-22 14:39:00,85.8,60.1,29.57,NNE,22,7.0,8.1,42,0.00,CLR,,0.00,WeatherDisplay:10.37,2013-09-22 19:39:00,
2013-09-22 14:45:00,86.0,60.2,29.57,NNW,338,2.3,3.5,42,0.00,CLR,,0.00,WeatherDisplay:10.37,2013-09-22 19:45:00,
2013-09-22 14:50:00,86.0,60.9,29.56,North,360,3.3,5.8,43,0.00,CLR,,0.00,WeatherDisplay:10.37,2013-09-22 19:50:00,
2013-09-22 14:56:00,86.0,60.9,29.56,NNE,22,2.6,3.5,43,0.00,CLR,,0.00,WeatherDisplay:10.37,2013-09-22 19:56:00,
2013-09-22 15:01:00,86.0,59.6,29.56,North,360,2.4,6.9,41,0.00,CLR,,0.00,WeatherDisplay:10.37,2013-09-22 20:01:00,
2013-09-22 15:06:00,86.7,58.8,29.56,NNE,22,3.8,4.6,39,0.00,CLR,,0.00,WeatherDisplay:10.37,2013-09-22 20:06:00,
2013-09-22 15:11:00,86.4,57.8,29.56,East,90,4.7,5.3,38,0.00,CLR,,0.00,WeatherDisplay:10.37,2013-09-22 20:11:00,
2013-09-22 15:16:00,86.9,60.4,29.56,North,360,3.3,4.6,41,0.00,CLR,,0.00,WeatherDisplay:10.37,2013-09-22 20:16:00,
2013-09-22 15:21:00,86.7,59.5,29.56,NNW,338,2.8,5.8,40,0.00,CLR,,0.00,WeatherDisplay:10.37,2013-09-22 20:21:00,
2013-09-22 15:26:00,86.0,58.9,29.56,ESE,112,3.7,4.6,40,0.00,CLR,,0.00,WeatherDisplay:10.37,2013-09-22 20:26:00,
2013-09-22 15:31:00,86.5,57.9,29.56,East,90,3.0,3.5,38,0.00,CLR,,0.00,WeatherDisplay:10.37,2013-09-22 20:31:00,
2013-09-22 15:36:00,85.8,57.3,29.56,West,270,3.9,6.9,38,0.00,CLR,,0.00,WeatherDisplay:10.37,2013-09-22 20:36:00,
2013-09-22 15:41:00,85.5,58.4,29.55,ESE,112,3.3,4.6,40,0.00,CLR,,0.00,WeatherDisplay:10.37,2013-09-22 20:41:00,
2013-09-22 15:46:00,86.4,59.2,29.55,North,360,2.1,2.7,40,0.00,CLR,,0.00,WeatherDisplay:10.37,2013-09-22 20:46:00,
2013-09-22 15:51:00,85.1,57.4,29.55,ENE,68,3.6,5.8,39,0.00,CLR,,0.00,WeatherDisplay:10.37,2013-09-22 20:51:00,
2013-09-22 15:56:00,84.7,58.4,29.55,NNE,22,3.7,5.8,41,0.00,CLR,,0.00,WeatherDisplay:10.37,2013-09-22 20:56:00,
2013-09-22 16:01:00,85.3,58.2,29.55,North,360,2.3,2.3,40,0.00,CLR,,0.00,WeatherDisplay:10.37,2013-09-22 21:01:00,
2013-09-22 16:06:00,85.5,57.7,29.54,NE,45,3.7,4.6,39,0.00,CLR,,0.00,WeatherDisplay:10.37,2013-09-22 21:06:00,
2013-09-22 16:11:00,85.1,57.4,29.54,North,360,2.9,3.5,39,0.00,CLR,,0.00,WeatherDisplay:10.37,2013-09-22 21:11:00,
2013-09-22 16:16:00,84.7,57.7,29.53,NNE,22,4.8,5.8,40,0.00,CLR,,0.00,WeatherDisplay:10.37,2013-09-22 21:16:00,
2013-09-22 16:21:00,84.7,57.7,29.53,East,90,3.6,4.6,40,0.00,CLR,,0.00,WeatherDisplay:10.37,2013-09-22 21:21:00,
2013-09-22 16:26:00,84.6,58.3,29.53,NNW,338,2.2,2.7,41,0.00,CLR,,0.00,WeatherDisplay:10.37,2013-09-22 21:26:00,
2013-09-22 16:31:00,84.4,58.8,29.53,North,360,2.3,2.3,42,0.00,CLR,,0.00,WeatherDisplay:10.37,2013-09-22 21:31:00,
2013-09-22 16:36:00,84.7,59.1,29.53,NNE,22,2.2,4.6,42,0.00,CLR,,0.00,WeatherDisplay:10.37,2013-09-22 21:36:00,
2013-09-22 16:41:00,85.1,58.8,29.53,NNW,338,3.2,5.8,41,0.00,CLR,,0.00,WeatherDisplay:10.37,2013-09-22 21:41:00,
2013-09-22 16:46:00,84.9,57.9,29.53,North,360,3.5,5.8,40,0.00,CLR,,0.00,WeatherDisplay:10.37,2013-09-22 21:46:00,
2013-09-22 16:51:00,84.6,56.9,29.53,ESE,112,2.9,3.5,39,0.00,CLR,,0.00,WeatherDisplay:10.37,2013-09-22 21:51:00,
2013-09-22 16:57:00,84.4,57.4,29.53,ESE,112,2.5,3.5,40,0.00,CLR,,0.00,WeatherDisplay:10.37,2013-09-22 21:57:00,
2013-09-22 17:02:00,84.0,56.4,29.53,ESE,112,3.5,4.6,39,0.00,CLR,,0.00,WeatherDisplay:10.37,2013-09-22 22:02:00,
2013-09-22 17:07:00,84.0,57.1,29.53,ESE,112,3.8,4.6,40,0.00,CLR,,0.00,WeatherDisplay:10.37,2013-09-22 22:07:00,
2013-09-22 17:12:00,83.8,56.9,29.53,ENE,68,2.8,4.6,40,0.00,CLR,,0.00,WeatherDisplay:10.37,2013-09-22 22:12:00,
2013-09-22 17:17:00,84.0,57.1,29.53,NNE,22,2.3,2.3,40,0.00,CLR,,0.00,WeatherDisplay:10.37,2013-09-22 22:17:00,
2013-09-22 17:22:00,84.0,57.8,29.53,ESE,112,2.9,5.8,41,0.00,CLR,,0.00,WeatherDisplay:10.37,2013-09-22 22:22:00,
2013-09-22 17:27:00,84.0,57.8,29.53,East,90,2.9,4.6,41,0.00,CLR,,0.00,WeatherDisplay:10.37,2013-09-22 22:27:00,
2013-09-22 17:32:00,83.8,57.6,29.53,ENE,68,1.4,2.2,41,0.00,CLR,,0.00,WeatherDisplay:10.37,2013-09-22 22:32:00,
2013-09-22 17:37:00,84.0,56.4,29.53,NE,45,3.5,4.6,39,0.00,CLR,,0.00,WeatherDisplay:10.37,2013-09-22 22:37:00,
2013-09-22 17:42:00,84.2,56.6,29.53,East,90,3.5,4.6,39,0.00,CLR,,0.00,WeatherDisplay:10.37,2013-09-22 22:42:00,
2013-09-22 17:47:00,84.9,56.5,29.53,East,90,2.4,3.5,38,0.00,CLR,,0.00,WeatherDisplay:10.37,2013-09-22 22:47:00,
2013-09-22 17:52:00,84.6,56.9,29.54,ESE,112,4.1,4.6,39,0.00,CLR,,0.00,WeatherDisplay:10.37,2013-09-22 22:52:00,
2013-09-22 17:57:00,84.4,56.7,29.54,ESE,112,2.9,3.5,39,0.00,CLR,,0.00,WeatherDisplay:10.37,2013-09-22 22:57:00,
2013-09-22 18:02:00,84.2,56.6,29.54,NNE,22,3.6,5.8,39,0.00,CLR,,0.00,WeatherDisplay:10.37,2013-09-22 23:02:00,
2013-09-22 18:07:00,83.8,56.2,29.55,NE,45,2.5,3.2,39,0.00,CLR,,0.00,WeatherDisplay:10.37,2013-09-22 23:07:00,
2013-09-22 18:12:00,83.8,56.2,29.55,ENE,68,2.3,3.5,39,0.00,CLR,,0.00,WeatherDisplay:10.37,2013-09-22 23:12:00,
2013-09-22 18:17:00,83.7,56.8,29.55,NNW,338,1.7,4.6,40,0.00,CLR,,0.00,WeatherDisplay:10.37,2013-09-22 23:17:00,
2013-09-22 18:22:00,83.5,56.6,29.55,NE,45,2.6,2.6,40,0.00,CLR,,0.00,WeatherDisplay:10.37,2013-09-22 23:22:00,
2013-09-22 18:27:00,83.3,57.8,29.55,North,360,2.1,3.7,42,0.00,CLR,,0.00,WeatherDisplay:10.37,2013-09-22 23:27:00,
2013-09-22 18:32:00,83.1,57.6,29.55,NNE,22,1.8,2.7,42,0.00,CLR,,0.00,WeatherDisplay:10.37,2013-09-22 23:32:00,
2013-09-22 18:37:00,82.8,57.4,29.55,ENE,68,1.9,2.7,42,0.00,CLR,,0.00,WeatherDisplay:10.37,2013-09-22 23:37:00,
2013-09-22 18:42:00,82.6,57.2,29.55,South,180,3.6,5.8,42,0.00,CLR,,0.00,WeatherDisplay:10.37,2013-09-22 23:42:00,
2013-09-22 18:47:00,82.4,57.7,29.55,ENE,68,1.8,3.2,43,0.00,CLR,,0.00,WeatherDisplay:10.37,2013-09-22 23:47:00,
2013-09-22 18:52:00,82.2,57.5,29.55,ENE,68,2.3,2.7,43,0.00,CLR,,0.00,WeatherDisplay:10.37,2013-09-22 23:52:00,
2013-09-22 18:57:00,82.0,57.3,29.55,North,360,1.7,2.3,43,0.00,CLR,,0.00,WeatherDisplay:10.37,2013-09-22 23:57:00,
2013-09-22 19:02:00,81.9,57.8,29.56,North,360,1.4,3.5,44,0.00,CLR,,0.00,WeatherDisplay:10.37,2013-09-23 00:02:00,
2013-09-22 19:07:00,81.7,57.7,29.56,ENE,68,1.9,3.5,44,0.00,CLR,,0.00,WeatherDisplay:10.37,2013-09-23 00:07:00,
2013-09-22 19:12:00,81.5,57.5,29.56,NNW,338,2.5,3.5,44,0.00,CLR,,0.00,WeatherDisplay:10.37,2013-09-23 00:12:00,
2013-09-22 19:17:00,81.3,57.3,29.56,NNW,338,1.2,1.7,44,0.00,CLR,,0.00,WeatherDisplay:10.37,2013-09-23 00:17:00,
2013-09-22 19:22:00,81.1,57.1,29.56,NNW,338,1.7,1.7,44,0.00,CLR,,0.00,WeatherDisplay:10.37,2013-09-23 00:22:00,
2013-09-22 19:27:00,81.1,57.1,29.56,North,360,0.9,1.2,44,0.00,CLR,,0.00,WeatherDisplay:10.37,2013-09-23 00:27:00,
2013-09-22 19:32:00,81.0,57.0,29.56,North,360,1.5,1.7,44,0.00,CLR,,0.00,WeatherDisplay:10.37,2013-09-23 00:32:00,
2013-09-22 19:37:00,80.8,57.5,29.56,East,90,0.0,0.0,45,0.00,CLR,,0.00,WeatherDisplay:10.37,2013-09-23 00:37:00,
2013-09-22 19:42:00,80.8,57.5,29.56,North,360,0.0,0.0,45,0.00,CLR,,0.00,WeatherDisplay:10.37,2013-09-23 00:42:00,
2013-09-22 19:47:00,80.6,57.3,29.56,East,90,0.0,1.2,45,0.00,CLR,,0.00,WeatherDisplay:10.37,2013-09-23 00:47:00,
2013-09-22 19:52:00,80.4,57.7,29.56,East,90,0.1,1.1,46,0.00,CLR,,0.00,WeatherDisplay:10.37,2013-09-23 00:52:00,
2013-09-22 19:57:00,80.6,56.7,29.56,NE,45,5.7,8.1,44,0.00,CLR,,0.00,WeatherDisplay:10.37,2013-09-23 00:57:00,
2013-09-22 20:02:00,80.6,56.7,29.57,ESE,112,0.0,1.2,44,0.00,CLR,,0.00,WeatherDisplay:10.37,2013-09-23 01:02:00,
2013-09-22 20:07:00,80.6,57.3,29.57,SE,135,2.8,3.5,45,0.00,CLR,,0.00,WeatherDisplay:10.37,2013-09-23 01:07:00,
2013-09-22 20:12:00,80.4,57.7,29.57,East,90,1.4,2.3,46,0.00,CLR,,0.00,WeatherDisplay:10.37,2013-09-23 01:12:00,
2013-09-22 20:17:00,80.4,57.7,29.57,NE,45,0.2,1.2,46,0.00,CLR,,0.00,WeatherDisplay:10.37,2013-09-23 01:17:00,
2013-09-22 20:22:00,80.2,56.9,29.57,NE,45,1.6,2.3,45,0.00,CLR,,0.00,WeatherDisplay:10.37,2013-09-23 01:22:00,
2013-09-22 20:27:00,80.2,57.5,29.58,NE,45,1.1,2.2,46,0.00,CLR,,0.00,WeatherDisplay:10.37,2013-09-23 01:27:00,
2013-09-22 20:32:00,80.2,56.9,29.58,ENE,68,2.2,2.7,45,0.00,CLR,,0.00,WeatherDisplay:10.37,2013-09-23 01:32:00,
2013-09-22 20:37:00,80.2,57.5,29.57,East,90,1.8,3.7,46,0.00,CLR,,0.00,WeatherDisplay:10.37,2013-09-23 01:37:00,
2013-09-22 20:42:00,80.1,57.5,29.57,NE,45,0.0,2.3,46,0.00,CLR,,0.00,WeatherDisplay:10.37,2013-09-23 01:42:00,
2013-09-22 20:48:00,79.9,56.7,29.57,SSE,158,0.9,1.7,45,0.00,CLR,,0.00,WeatherDisplay:10.37,2013-09-23 01:48:00,
2013-09-22 20:53:00,79.9,56.7,29.58,ESE,112,1.8,1.8,45,0.00,CLR,,0.00,WeatherDisplay:10.37,2013-09-23 01:53:00,
2013-09-22 20:58:00,79.9,57.3,29.58,SE,135,1.7,1.7,46,0.00,CLR,,0.00,WeatherDisplay:10.37,2013-09-23 01:58:00,
2013-09-22 21:03:00,79.7,57.7,29.58,ESE,112,0.0,0.0,47,0.00,CLR,,0.00,WeatherDisplay:10.37,2013-09-23 02:03:00,
2013-09-22 21:08:00,79.7,57.7,29.58,ESE,112,0.5,1.2,47,0.00,CLR,,0.00,WeatherDisplay:10.37,2013-09-23 02:08:00,
2013-09-22 21:13:00,79.7,58.3,29.58,East,90,1.3,2.3,48,0.00,CLR,,0.00,WeatherDisplay:10.37,2013-09-23 02:13:00,
2013-09-22 21:18:00,79.5,58.1,29.57,ESE,112,1.0,1.7,48,0.00,CLR,,0.00,WeatherDisplay:10.37,2013-09-23 02:18:00,
2013-09-22 21:23:00,79.5,58.1,29.57,East,90,1.8,2.3,48,0.00,CLR,,0.00,WeatherDisplay:10.37,2013-09-23 02:23:00,
2013-09-22 21:28:00,79.3,57.9,29.57,ESE,112,2.0,2.3,48,0.00,CLR,,0.00,WeatherDisplay:10.37,2013-09-23 02:28:00,
2013-09-22 21:33:00,79.3,57.9,29.57,ENE,68,1.3,1.3,48,0.00,CLR,,0.00,WeatherDisplay:10.37,2013-09-23 02:33:00,
2013-09-22 21:38:00,79.3,58.5,29.57,ESE,112,1.0,1.2,49,0.00,CLR,,0.00,WeatherDisplay:10.37,2013-09-23 02:38:00,
2013-09-22 21:43:00,79.2,58.4,29.57,ESE,112,0.0,0.0,49,0.00,CLR,,0.00,WeatherDisplay:10.37,2013-09-23 02:43:00,
2013-09-22 21:48:00,79.2,58.4,29.57,ENE,68,1.4,2.3,49,0.00,CLR,,0.00,WeatherDisplay:10.37,2013-09-23 02:48:00,
2013-09-22 21:53:00,79.0,58.2,29.57,East,90,0.2,1.2,49,0.00,CLR,,0.00,WeatherDisplay:10.37,2013-09-23 02:53:00,
2013-09-22 21:58:00,78.8,58.6,29.57,ENE,68,0.0,0.0,50,0.00,CLR,,0.00,WeatherDisplay:10.37,2013-09-23 02:58:00,
2013-09-22 22:03:00,78.6,58.4,29.58,ESE,112,1.6,2.3,50,0.00,CLR,,0.00,WeatherDisplay:10.37,2013-09-23 03:03:00,
2013-09-22 22:08:00,78.4,58.2,29.58,ESE,112,0.0,1.2,50,0.00,CLR,,0.00,WeatherDisplay:10.37,2013-09-23 03:08:00,
2013-09-22 22:13:00,78.3,58.1,29.58,ESE,112,0.0,1.2,50,0.00,CLR,,0.00,WeatherDisplay:10.37,2013-09-23 03:13:00,
2013-09-22 22:18:00,78.3,58.1,29.58,East,90,0.0,1.2,50,0.00,CLR,,0.00,WeatherDisplay:10.37,2013-09-23 03:18:00,
2013-09-22 22:23:00,77.9,58.3,29.58,NE,45,0.0,0.0,51,0.00,CLR,,0.00,WeatherDisplay:10.37,2013-09-23 03:23:00,
2013-09-22 22:28:00,77.7,58.1,29.59,NE,45,0.0,0.0,51,0.00,CLR,,0.00,WeatherDisplay:10.37,2013-09-23 03:28:00,
2013-09-22 22:33:00,77.5,58.5,29.59,NE,45,0.0,0.0,52,0.00,CLR,,0.00,WeatherDisplay:10.37,2013-09-23 03:33:00,
2013-09-22 22:38:00,77.2,58.7,29.58,NE,45,0.0,0.0,53,0.00,CLR,,0.00,WeatherDisplay:10.37,2013-09-23 03:38:00,
2013-09-22 22:44:00,77.0,58.6,29.58,NNE,22,0.0,0.0,53,0.00,CLR,,0.00,WeatherDisplay:10.37,2013-09-23 03:44:00,
2013-09-22 22:49:00,76.6,58.2,29.58,North,360,0.3,1.2,53,0.00,CLR,,0.00,WeatherDisplay:10.37,2013-09-23 03:49:00,
2013-09-22 22:54:00,76.5,58.6,29.58,North,360,0.0,0.0,54,0.00,CLR,,0.00,WeatherDisplay:10.37,2013-09-23 03:54:00,
2013-09-22 22:59:00,76.1,58.2,29.58,North,360,0.0,0.0,54,0.00,CLR,,0.00,WeatherDisplay:10.37,2013-09-23 03:59:00,
2013-09-22 23:01:00,76.1,58.8,29.58,North,360,0.0,0.0,55,0.00,CLR,,0.00,WeatherDisplay:10.37,2013-09-23 04:01:00,
2013-09-22 23:06:00,75.9,59.1,29.58,North,360,0.0,0.0,56,0.00,CLR,,0.00,WeatherDisplay:10.37,2013-09-23 04:06:00,
2013-09-22 23:11:00,75.7,58.9,29.58,ENE,68,0.8,1.2,56,0.00,CLR,,0.00,WeatherDisplay:10.37,2013-09-23 04:11:00,
2013-09-22 23:16:00,75.7,58.9,29.58,East,90,0.0,1.2,56,0.00,CLR,,0.00,WeatherDisplay:10.37,2013-09-23 04:16:00,
2013-09-22 23:21:00,75.6,59.3,29.58,East,90,0.0,0.0,57,0.00,CLR,,0.00,WeatherDisplay:10.37,2013-09-23 04:21:00,
2013-09-22 23:26:00,75.6,59.3,29.58,NE,45,0.0,0.0,57,0.00,CLR,,0.00,WeatherDisplay:10.37,2013-09-23 04:26:00,
2013-09-22 23:31:00,75.6,59.3,29.58,NNE,22,0.0,0.0,57,0.00,CLR,,0.00,WeatherDisplay:10.37,2013-09-23 04:31:00,
2013-09-22 23:37:00,75.6,59.8,29.58,North,360,0.0,0.0,58,0.00,CLR,,0.00,WeatherDisplay:10.37,2013-09-23 04:37:00,
2013-09-22 23:42:00,75.6,59.8,29.58,ENE,68,0.0,0.0,58,0.00,CLR,,0.00,WeatherDisplay:10.37,2013-09-23 04:42:00,
2013-09-22 23:47:00,75.6,59.8,29.58,NNE,22,0.0,0.0,58,0.00,CLR,,0.00,WeatherDisplay:10.37,2013-09-23 04:47:00,
2013-09-22 23:52:00,75.7,59.9,29.58,North,360,0.0,0.0,58,0.00,CLR,,0.00,WeatherDisplay:10.37,2013-09-23 04:52:00,
2013-09-22 23:57:00,76.1,59.8,29.58,North,360,3.1,5.8,57,0.00,CLR,,0.00,WeatherDisplay:10.37,2013-09-23 04:57:00,